Location: Franzen
(48.6167°N, 15.3833°E)
Time: 07:43:27
(UTC+00:00)

A-11 Canister half - Pass Details

Date: 30 July 2021
Orbit: 1515 x 1685 km, 47.2° (Epoch: 21 September)

Event Time Altitude Azimuth Distance (km) Brightness Sun altitude
Rises 15:32:44 0° 210° (SSW) 4,768 12.0 28.8°
Reaches altitude 10° 15:36:03 10° 203° (SSW) 3,811 11.5 28.3°
Maximum altitude 15:44:45 38° 140° (SE) 2,313 9.9 26.8°
Drops below altitude 10° 15:53:41 10° 77° (ENE) 3,931 10.7 25.3°
Sets 15:57:09 0° 70° (ENE) 4,934 11.1 24.8°
